This demonstration page uses our WeatherBlox Daily Observations layout. Learn more.

Left ArrowRight Arrow

44.8408, -93.29828

Hourly Observations for November 17, 2015

Temp ( °F °C ) Dew Point ( °F °C ) Humidity (%) Winds ( mph kmh ) Pressure ( in mb ) Visibility ( mi km ) Precip ( " mm )
12:53 am 00:53 Cloudy with Mist and Fog 49 9.4 47 8.3 93 93 SE 13 20 29.79 1009 3 5 0.00 0.00
1:53 am 01:53 Cloudy with Drizzle 49 9.4 47 8.3 93 93 ESE 16 26 29.76 1008 3 5 0.00 0.03
2:53 am 02:53 Cloudy with Drizzle 49 9.4 47 8.3 93 93 ESE 16 26 29.75 1008 4 6 0.00 0.03
3:53 am 03:53 Cloudy with Light Rain 49 9.4 48 8.9 97 97 ESE 15 24 29.75 1008 6 10 0.00 0.03
4:28 am 04:28 Cloudy with Rain 48 9 48 9 100 100 ESE 15 24 29.77 1008 3 4 0.00 0.00
4:37 am 04:37 Cloudy with Rain 49 9.4 48 8.9 97 97 E 17 28 29.74 1007 3 5 0.11 2.79
4:53 am 04:53 Cloudy with Nearby Thunderstorms 49 9.4 48 8.9 97 97 E 18 30 29.71 1006 3 5 0.16 4.06
5:01 am 05:01 Cloudy with Nearby Thunderstorms 49 9.4 48 8.9 97 97 ESE 21 33 29.71 1006 3 4 0.03 0.76
5:05 am 05:05 Cloudy with Light Rain 49 9.4 48 8.9 97 97 ESE 21 33 29.71 1006 3 5 0.04 1.02
5:11 am 05:11 Cloudy with Rain 49 9.4 48 8.9 97 97 SE 15 24 29.74 1007 4 6 0.05 1.27
5:21 am 05:21 Cloudy with Strong Thunderstorms 50 10 48 8.9 93 93 SE 16 26 29.74 1007 3 5 0.07 1.78
5:30 am 05:30 Cloudy with Heavy Rain 49 9.4 48 8.9 97 97 ESE 18 30 29.74 1007 3 4 0.12 3.05
5:32 am 05:32 Cloudy with Heavy Rain 48 9 48 9 100 100 ESE 21 33 29.74 1007 2 3 0.00 0.00
5:40 am 05:40 Cloudy with Heavy Rain 49 9.4 48 8.9 97 97 ESE 21 33 29.71 1006 2 3 0.19 4.83
5:42 am 05:42 Cloudy with Rain 48 9 48 9 100 100 ESE 20 31 29.74 1007 2 3 0.00 0.00
5:46 am 05:46 Cloudy with Rain 48 9 48 9 100 100 ESE 20 31 29.74 1007 3 5 0.00 0.00
5:53 am 05:53 Cloudy with Heavy Rain 49 9.4 48 8.9 97 97 ESE 20 31 29.70 1006 3 5 0.25 6.35
6:53 am 06:53 Cloudy with Rain 49 9.4 48 8.9 97 97 ESE 15 24 29.72 1006 3 5 0.20 5.08
6:55 am 06:55 Cloudy with Rain 49 9.4 48 8.9 97 97 ESE 17 28 29.74 1007 3 4 0.01 0.25
7:21 am 07:21 Cloudy with Heavy Rain 49 9.4 48 8.9 97 97 ESE 16 26 29.74 1007 9 14 0.18 4.57
7:53 am 07:53 Cloudy with Light Rain 49 9.4 48 8.9 97 97 ESE 14 22 29.71 1006 7 11 0.19 4.83
8:53 am 08:53 Cloudy with Light Rain 50 10 48 8.9 93 93 ESE 16 26 29.69 1006 6 10 0.01 0.25
9:53 am 09:53 Cloudy 50 10 48 8.9 93 93 ESE 13 20 29.69 1005 10 16 0.00 0.03
10:53 am 10:53 Cloudy with Light Rain 50 10 49 9.4 96 96 ESE 14 22 29.66 1005 7 11 0.03 0.76
11:53 am 11:53 Cloudy with Heavy Rain 50 10 49 9.4 96 96 ESE 13 20 29.63 1003 5 8 0.16 4.06
12:53 pm 12:53 Cloudy with Light Rain 51 10.6 49 9.4 92 92 E 13 20 29.58 1002 7 11 0.14 3.56
1:53 pm 13:53 Cloudy 51 10.6 50 10 96 96 ESE 14 22 29.58 1002 10 16 0.03 0.76
2:25 pm 14:25 Cloudy with Light Rain 51 10.6 50 10 96 96 ESE 10 17 29.53 1000 7 11 0.01 0.25
2:53 pm 14:53 Cloudy with Light Rain 52 11.1 50 10 93 93 ESE 10 17 29.54 1000 7 11 0.02 0.51
3:53 pm 15:53 Cloudy with Drizzle 52 11.1 51 10.6 97 97 ESE 12 19 29.52 1000 5 8 0.00 0.03
4:26 pm 16:26 Cloudy with Drizzle 52 11 52 11 100 100 E 15 24 29.47 998 3 5 0.00 0.00
4:41 pm 16:41 Cloudy with Drizzle 53 11.7 51 10.6 93 93 ESE 13 20 29.50 999 6 10 0.00 0.03
4:53 pm 16:53 Cloudy with Drizzle 53 11.7 52 11.1 96 96 SE 9 15 29.52 1000 7 11 0.00 0.03
5:30 pm 17:30 Cloudy with Drizzle 54 12 52 11 94 94 SE 9 15 29.53 1000 2 3 0.00 0.00
5:53 pm 17:53 Cloudy with Light Rain 53 11.7 52 11.1 96 96 SE 9 15 29.53 1000 3 5 0.01 0.25
6:53 pm 18:53 Cloudy 54 12.2 52 11.1 93 93 SE 8 13 29.51 999 9 14 0.00 0.03
7:53 pm 19:53 Cloudy with Drizzle 54 12.2 53 11.7 97 97 SE 10 17 29.49 999 7 11 0.00 0.03
8:28 pm 20:28 Cloudy with Drizzle 54 12.2 53 11.7 97 97 SE 12 19 29.47 998 5 8 0.00 0.03
8:49 pm 20:49 Cloudy with Drizzle 54 12 54 12 100 100 SE 8 13 29.44 997 6 10 0.00 0.03
8:53 pm 20:53 Cloudy with Drizzle 54 12.2 53 11.7 97 97 ESE 9 15 29.45 997 7 11 0.01 0.25
9:50 pm 21:50 Cloudy with Mist and Fog 54 12 54 12 100 100 SE 9 15 29.44 997 6 10 0.00 0.00
9:53 pm 21:53 Cloudy with Mist and Fog 54 12.2 53 11.7 97 97 ESE 9 15 29.44 997 5 8 0.00 0.03
10:53 pm 22:53 Cloudy with Mist and Fog 54 12.2 53 11.7 97 97 ESE 9 15 29.40 996 3 5 0.00 0.00
11:53 pm 23:53 Cloudy with Mist and Fog 54 12.2 53 11.7 97 97 ESE 10 17 29.39 995 4 6 0.00 0.00

Powered by AerisWeather